Home > Time Zones > World Clock > Weather > Yemen > Aden > Past weeks

Flag for Yemen Weather past 2 weeks in Aden, Yemen

Now
86 °F

Passing clouds.


Feels Like: 88 °F
Forecast: 83 / 90 °F
Wind: 16 mph from Southeast

Location: Aden

Current Time: Oct 1, 2014 at 3:23:44 AM

Latest Report: Oct 1, 2014 at 3:00 AM


Visibility: N/A

Pressure: 29.77 "Hg

Humidity: 52%

Dew point: 66 °F

Location of AdenLocation

Historic Weather in Aden — Graph

°F

Aden temperature yesterday

Maximum temperature yesterday: 91 °F (at 3:00 PM)
Minimum temperature yesterday: 86 °F (at 12:00 AM)
Average temperature yesterday: 88 °F

Past Weeks' High & Low Weather Summary

 TemperatureHumidityPressure
High99 °F (Sep 17, 1:00 PM)70% (Sep 16, 11:00 PM)29.86 "Hg (Sep 16, 11:00 PM)
Low84 °F (Sep 19, 6:00 AM)20% (Sep 26, 3:00 PM)29.56 "Hg (Sep 17, 3:00 PM)
Average90 °F48%29.72 "Hg
* Reported Sep 16 2:00 AM — Oct 1 2:00 AM, Aden, Weather by CustomWeather, © 2014

Note: Actual official high and low records may vary slightly from our data, if they occured in-between our weather recording intervals... More about our weather records

Advertising

Aden weather history for previous 24 hours

 ConditionsComfort  
Time TempWeatherWind HumidityBarometerVisibility
2:00 AM
Oct 1
86 °FPassing clouds.15 mph52%29.77 "HgN/A
1:00 AM86 °FPassing clouds.15 mph49%29.77 "HgN/A
12:00 AM86 °FPassing clouds.15 mph49%29.80 "HgN/A
11:00 PM
Sep 30
88 °FClear.12 mph49%29.80 "Hg10 mi
10:00 PM88 °FClear.14 mph49%29.80 "Hg10 mi
9:00 PM88 °FClear.12 mph49%29.80 "Hg10 mi
8:00 PM88 °FPassing clouds.10 mph46%29.80 "HgN/A
7:00 PM88 °FPassing clouds.8 mph43%29.77 "HgN/A
6:00 PM88 °FPassing clouds.10 mph43%29.74 "HgN/A
5:00 PM90 °FPartly sunny.7 mph43%29.74 "HgN/A
4:00 PM90 °FScattered clouds.9 mph41%29.71 "HgN/A
3:00 PM91 °FPassing clouds.7 mph38%29.74 "HgN/A
2:00 PM86 °FScattered clouds.8 mph43%29.77 "Hg4 mi
1:00 PM90 °FScattered clouds.13 mph38%29.80 "Hg5 mi
9:00 AM90 °FBroken clouds.16 mph41%29.83 "HgN/A
8:00 AM90 °FBroken clouds.16 mph46%29.83 "HgN/A
7:00 AM88 °FBroken clouds.14 mph49%29.83 "HgN/A
6:00 AM88 °FBroken clouds.16 mph49%29.80 "HgN/A
5:00 AM88 °FPartly cloudy.15 mph52%29.80 "HgN/A
4:00 AM88 °FPartly cloudy.15 mph49%29.77 "HgN/A
3:00 AM88 °FPartly cloudy.15 mph52%29.77 "HgN/A
Weather by CustomWeather, © 2014

See weather overviewHow to use our weather pages